Probability
0 0 0 0 0 0 0 0 0 0 0 0 0 0 0 0 0 0 0 0 0 0 0 0 0 0 0 0 0 0 0 0 0 0 0 0 0 0
0 0 0 0 0 0 0 0 0 0 0 0 0 0 0 0 0 0 0 0 0 0 0 0 0 0 0 0 0 0 0 0 0 0 0 0 0 0
0 0 0 0 0 0 0 0 0 0 0 0 0 0 0 0 0 0 0 0 0 0 0 0 0 0 0 0 0 0 0 0 0 0 0 0 0 0
0 0 0 0 0 0 0 0 0 0 0 0 0 0 0 0 0 0 0 0 0 0 0 0 0 0 0 0 0 0 0 0 0 0 0 0 0 0
0 0 0 0 0 0 0 0 0 0 0 0 0 0 0 0 0 0 0 0 0 0 0 0 0 0 0 0 0 0 0 0 0 0 0 0 0 0
0 0 0 0 0 0 0 0 0 0 0 0 0 0 0 0 0 0 0 0 0 0 0 0 0 0 0 0 0 0 0 0 0 0 0 0 0 0
0 0 0 0 0 0 0 0 0 0 0 0 0 0 0 0 0 0 0 0 0 0 0 0 0 0 0 0 0 0 0 0 0 0 0 0 0 0
0 0 0 0 0 0 0 0 0 0 0 0 0 0 0 0 0 0 0 0 0 0 0 0 0 0 0 0 0 0 0 0 0 0 0 0 0 0
0 0 0 0 0 0 0 0 0 0 0 0 0 0 0 0 0 0 0 0 0 0 0 0 0 0 0 0 0 0 0 0 0 0 0 0 0 0
0 0 0 0 0 0 0 0 0 0 0 0 0 0 0 0 0 0 0 0 0 0 0 0 0 0 0 0 0 0 0 0 0 0 0 0 0 0
0 0 0 0 0 0 0 0 0 0 0 0 0 0 0 0 0 0 0 0 0 0 0 0 0 0 0 0 0 0 0 0 0 0 0 0 0 0
0 0 0 0 0 0 0 0 0 0 0 0 0 0 0 0 0 0 0 0 0 0 0 0 0 0 0 0 0 0 0 0 0 0 0 0 0 0
0 0 0 0 0 0 0 0 0 0 0 0 0 0 0 0 0 0 0 0 0 0 0 0 0 0 0 0 0 0 0 0 0 0 0 0 0 0
0 0 0 0 0 0 0 0 0 0 0 0 0 0 0 0 0 0 0 0 0 0 0 0 0 0 0 0 0 0 0 0 0 0 0 0 0 0
0 0 0 0 0 0 0 0 0 0 0 0 0 0 0 0 0 0 0 0 0 0 0 0 0 0 0 0 0 0 0 0 0 0 0 0 0 0
0 0 0 0 0 0 0 0 0 0 0 0 0 0 0 0 0 0 0 0 0 0 0 0 0 0 0 0 0 0 0 0 0 0 0 0 0 0
0 0 0 0 0 0 0 0 0 0 0 0 0 0 0 0 0 0 0 0 0 0 0 0 0 0 0 0 0 0 0 0 0 0 0 0 0 0
0 0 0 0 0 0 0 0 0 0 0 0 0 0 0 0 0 0 0 0 0 0 0 0 0 0 0 0 0 0 0 0 0 0 0 0 0 0
0 0 0 0 0 0 0 0 0 0 0 0 0 0 0 0 0 0 0 0 0 0 0 0 0 0 0 0 0 0 0 0 0 0 0 0 0 0
0 0 0 0 0 0 0 0 0 0 0 0 0 0 0 0 0 0 0 0 0 0 0 0 0 0 0 0 0 0 0 0 0 0 0 0 0 0
0 0 0 0 0 0 0 0 0 0 0 0 0 0 0 0 0 0 0 0 0 0 0 0 0 0 0 0 0 0 0 0 0 0 0 0 0 0
0 0 0 0 0 0 0 0 0 0 0 0 0 0 0 0 0 0 0 0 0 0 0 0 0 0 0 0 0 0 0 0 0 0 0 0 0 0
0 0 0 0 0 0 0 0 0 0 0 0 0 0 0 0 0 0 0 0 0 0 0 0 0 0 0 0 0 0 0 0 0 0 0 0 0 0
Wind_Speed
6 6 5 4 3 3 3 4 5 5 4 4 3 4 3 3 4 5 7 10 13 16 17 18 19 20 21 21 22 22 23 23 23 24 24 24 25 25
6 8 7 5 5 4 4 4 3 3 3 2 3 3 4 4 6 7 9 13 15 16 17 18 19 20 21 22 22 22 23 23 24 24 25 25 25 25
8 9 9 8 6 5 5 4 3 3 2 1 2 2 4 6 6 7 8 9 9 15 17 19 20 20 21 21 21 22 22 23 23 24 25 25 26 26
10 10 9 7 7 5 4 4 3 2 1 2 3 3 6 7 8 9 8 8 9 14 18 19 20 20 20 20 21 21 22 22 23 24 25 26 26 27
10 10 9 8 7 4 4 3 2 2 2 3 3 4 5 5 7 8 9 9 9 11 15 17 18 18 19 20 21 22 22 23 24 24 25 26 26 27
9 8 7 6 6 5 3 3 2 3 4 4 4 5 5 6 6 7 8 8 9 9 12 13 15 18 20 21 22 22 22 22 23 24 24 25 25 26
9 8 6 6 5 3 2 2 3 3 3 4 4 5 5 5 6 6 8 9 10 9 8 8 9 10 12 15 18 19 20 21 23 23 24 25 25 26
8 7 6 5 4 2 0 2 3 3 4 4 5 6 7 7 7 7 8 9 9 6 8 10 10 11 10 10 15 20 22 23 23 24 24 24 25 25
6 5 3 3 2 0 1 2 2 4 6 6 7 8 8 7 8 9 9 10 11 10 11 12 11 12 10 11 19 22 23 23 23 23 23 23 24 24
4 3 2 1 1 3 3 3 4 5 5 6 7 8 8 8 9 10 11 11 12 10 10 11 10 11 11 11 17 21 22 23 23 23 23 23 24 24
3 2 2 2 3 5 4 4 6 6 5 8 11 12 14 14 12 8 8 8 10 9 7 7 8 11 11 11 12 17 19 22 23 24 24 24 24 23
1 2 2 4 6 6 5 5 6 6 6 7 8 9 9 9 10 8 7 7 7 7 5 5 8 8 8 7 8 9 12 17 21 23 23 23 22 14
2 2 2 6 7 8 7 6 7 9 8 7 7 7 6 5 5 5 5 6 8 8 7 6 7 7 8 9 9 10 11 11 11 13 17 19 19 16
3 3 4 7 8 8 7 7 9 8 5 5 6 6 5 5 5 6 8 9 10 13 12 10 8 8 9 12 11 10 10 11 11 11 10 14 16 19
3 5 7 8 8 6 5 7 7 4 5 5 6 6 6 7 7 7 8 9 11 12 12 13 12 10 10 11 11 12 12 11 10 9 9 10 10 10
3 4 6 6 5 5 5 4 3 4 5 6 6 6 6 7 7 7 7 8 8 9 7 10 11 12 12 13 13 14 12 10 9 10 11 11 11 11
5 4 4 3 3 3 3 3 3 4 4 5 6 6 7 7 7 6 6 7 7 9 10 7 8 10 14 13 13 14 13 12 11 11 11 12 11 11
5 4 4 4 4 4 5 5 4 4 4 5 6 6 7 7 8 7 7 8 9 10 10 10 9 10 10 11 16 15 12 12 11 11 11 12 14 11
4 4 4 4 4 4 5 5 5 5 5 6 6 7 7 7 8 8 8 8 9 10 10 10 9 10 12 13 8 11 11 12 12 12 11 12 13 13
3 4 4 4 5 5 5 6 6 6 6 6 7 7 7 8 8 9 9 10 10 11 11 10 9 9 11 13 14 13 13 13 12 13 13 12 13 16
4 4 4 5 5 5 6 6 7 7 7 7 7 8 7 8 8 9 9 14 13 11 12 11 10 14 11 11 12 13 11 11 14 13 14 13 13 12
5 5 5 5 6 6 6 6 7 7 8 7 8 8 8 8 9 11 10 11 11 11 13 12 11 10 10 11 14 15 16 14 12 18 21 19 12 9
5 5 6 6 6 6 6 7 9 8 8 8 8 8 8 9 9 10 11 11 11 12 13 12 11 10 11 11 13 13 17 17 13 12 11 13 19 24
Wind_Direction
169 156 141 128 119 116 122 140 152 171 196 177 174 186 193 204 221 258 274 279 287 291 293 294 295 294 293 291 290 289 288 287 286 284 283 281 279 278
139 136 125 118 106 98 97 88 92 136 168 158 175 172 194 230 250 267 275 282 281 285 287 290 291 291 289 288 287 286 286 285 284 283 282 281 280 279
129 127 120 119 112 100 93 92 86 93 147 171 187 200 233 254 263 268 274 279 281 282 285 289 290 289 288 287 286 285 284 284 284 283 283 283 282 282
125 120 117 113 105 103 106 108 108 113 166 223 219 225 246 262 273 277 279 279 279 284 287 289 288 288 287 286 285 284 284 285 285 284 283 282 281 280
115 116 117 117 115 114 115 120 129 155 198 235 248 246 255 262 275 277 279 280 281 283 286 286 287 287 286 286 286 285 285 284 283 281 280 279 278 278
95 98 102 110 118 127 132 145 165 197 216 237 256 263 267 271 275 284 291 292 292 291 286 285 285 285 284 283 283 283 283 282 281 280 278 276 275 274
87 86 90 101 117 129 146 178 203 224 240 253 263 272 275 282 286 296 295 299 296 289 286 287 288 285 285 283 281 279 280 281 281 279 278 277 275 274
94 92 94 91 93 90 137 248 249 255 262 268 274 277 283 289 296 296 297 298 299 295 299 296 293 288 286 283 284 286 285 285 284 282 281 279 277 275
93 97 98 92 73 302 280 278 280 285 279 281 278 279 288 294 295 292 289 289 286 291 296 290 291 288 287 285 287 286 286 286 286 285 282 280 278 276
91 86 77 55 2 310 295 291 285 277 278 276 276 282 284 288 285 283 285 285 283 280 279 284 289 290 293 290 288 286 285 285 285 285 284 283 281 279
79 52 10 338 325 304 297 295 294 289 277 276 281 283 286 286 287 285 281 282 288 291 291 282 290 299 295 287 284 284 283 284 284 285 284 283 281 281
48 19 358 328 321 319 309 298 295 303 303 292 284 280 280 279 275 265 268 273 280 289 288 284 293 308 298 282 286 290 288 286 285 284 284 283 282 279
349 344 348 331 325 324 314 300 300 303 298 296 294 292 289 283 277 271 264 257 264 266 276 292 284 284 275 288 292 288 285 286 289 287 286 283 280 274
339 336 334 330 325 321 313 306 304 302 293 292 291 294 298 299 298 293 282 269 258 262 272 276 271 273 277 283 285 288 289 290 288 286 284 283 279 274
336 335 329 326 319 306 302 308 305 292 288 288 290 294 297 297 296 291 284 273 267 261 260 256 254 260 262 268 276 285 293 293 286 280 280 280 280 278
317 315 313 309 300 300 304 296 289 294 298 292 294 297 296 292 288 290 294 299 295 286 261 245 245 251 260 265 270 278 281 280 282 283 284 281 277 271
323 307 309 315 314 315 307 302 297 289 286 291 293 294 294 293 292 293 289 291 285 293 300 292 263 250 250 259 268 269 273 275 276 281 284 283 278 271
317 306 315 319 320 319 315 311 307 300 298 297 292 289 291 293 294 293 287 284 285 288 292 296 297 292 280 257 237 256 268 276 282 283 281 282 282 277
307 310 312 311 309 305 302 300 298 298 296 288 285 285 286 287 288 291 292 289 288 289 291 292 291 291 295 300 280 232 258 280 286 284 279 277 280 283
305 304 303 303 300 297 295 294 293 294 288 284 282 280 280 282 285 288 289 290 292 293 293 291 288 287 289 293 293 288 265 266 277 282 285 283 279 278
303 298 295 294 292 290 288 287 286 285 285 284 281 280 279 280 282 285 287 289 291 290 292 294 290 289 284 280 280 284 286 265 260 270 282 285 287 286
294 292 291 288 287 286 285 284 284 283 284 279 279 281 281 280 281 284 286 288 289 289 291 291 291 291 287 286 288 293 298 298 282 266 261 258 269 279
291 291 288 286 282 280 280 280 281 281 280 280 281 282 284 283 283 283 284 284 286 290 293 295 296 293 290 288 289 292 296 301 301 300 287 265 255 258